When you browse on this site, cookies collect data to enhance your experience and personalize the content and advertising you see.
Visit our Privacy Policy to learn more. By continuing to use the site, you agree to this use of cookies and data.
  • In Latvia
  • List of Countries
  • For 7 days
  • Water Temperature
  • Weather Map
  • Weather Widgets
  • user-avatar
    Login

    Hourly Weather Podyachevka

    Today, 25 August, Sunday

    Time Temperature Precipitation Wind Pressure Humidity
    00:00 +15°C° 0 mm 1 mps 754 mmHg 69%
    01:00 +15°C° 0 mm 1 mps 754 mmHg 72%
    02:00 +14°C° 0 mm 2 mps 754 mmHg 75%
    03:00 +14°C° 0 mm 2 mps 754 mmHg 76%
    04:00 +14°C° 0 mm 2 mps 754 mmHg 77%
    05:00 +15°C° 0 mm 2 mps 753 mmHg 77%
    06:00 +14°C° 0 mm 3 mps 753 mmHg 77%
    07:00 +17°C° 0 mm 3 mps 753 mmHg 73%
    08:00 +18°C° 0 mm 3 mps 753 mmHg 68%
    09:00 +20°C° 0 mm 4 mps 753 mmHg 63%
    10:00 +21°C° 0 mm 4 mps 753 mmHg 62%
    11:00 +22°C° 0 mm 5 mps 753 mmHg 62%
    12:00 +22°C° 0 mm 5 mps 752 mmHg 61%
    13:00 +22°C° 0 mm 5 mps 753 mmHg 59%
    14:00 +22°C° 0 mm 6 mps 753 mmHg 57%
    15:00 +22°C° 0 mm 6 mps 753 mmHg 54%
    16:00 +20°C° 0 mm 6 mps 753 mmHg 59%
    17:00 +19°C° 0 mm 6 mps 753 mmHg 65%
    18:00 +16°C° 0 mm 6 mps 753 mmHg 70%
    19:00 +15°C° 0 mm 5 mps 754 mmHg 74%
    20:00 +14°C° 0 mm 5 mps 755 mmHg 77%
    21:00 +13°C° 0 mm 4 mps 755 mmHg 81%
    22:00 +13°C° 0 mm 4 mps 755 mmHg 83%
    23:00 +13°C° 0 mm 4 mps 755 mmHg 85%

    Tomorrow, 26 August, Monday

    Time Temperature Precipitation Wind Pressure Humidity
    00:00 +12°C° 0 mm 4 mps 755 mmHg 87%
    01:00 +12°C° 0 mm 4 mps 756 mmHg 89%
    02:00 +12°C° 0 mm 4 mps 757 mmHg 91%
    03:00 +11°C° 0 mm 4 mps 757 mmHg 93%
    04:00 +11°C° 0 mm 4 mps 757 mmHg 92%
    05:00 +11°C° 0 mm 4 mps 757 mmHg 91%
    06:00 +11°C° 0 mm 4 mps 757 mmHg 91%
    07:00 +12°C° 0 mm 4 mps 758 mmHg 84%
    08:00 +13°C° 0 mm 4 mps 758 mmHg 78%
    09:00 +14°C° 0 mm 4 mps 759 mmHg 72%
    10:00 +15°C° 0 mm 4 mps 758 mmHg 66%
    11:00 +17°C° 0 mm 4 mps 758 mmHg 61%
    12:00 +18°C° 0 mm 4 mps 758 mmHg 55%
    13:00 +19°C° 0 mm 4 mps 758 mmHg 54%
    14:00 +19°C° 0 mm 3 mps 758 mmHg 52%
    15:00 +19°C° 0 mm 3 mps 758 mmHg 50%
    16:00 +19°C° 0 mm 3 mps 757 mmHg 56%
    17:00 +18°C° 0 mm 3 mps 757 mmHg 61%
    18:00 +17°C° 0 mm 2 mps 757 mmHg 67%
    19:00 +16°C° 0 mm 2 mps 757 mmHg 69%
    20:00 +15°C° 0 mm 2 mps 757 mmHg 71%
    21:00 +14°C° 0 mm 2 mps 757 mmHg 73%
    22:00 +13°C° 0 mm 2 mps 756 mmHg 75%
    23:00 +13°C° 0 mm 2 mps 756 mmHg 76%

    Day after tomorrow, 27 August, Tuesday

    Time Temperature Precipitation Wind Pressure Humidity
    00:00 +13°C° 0 mm 2 mps 755 mmHg 78%
    01:00 +12°C° 0 mm 3 mps 755 mmHg 78%
    02:00 +12°C° 0 mm 3 mps 754 mmHg 79%
    03:00 +12°C° 0 mm 4 mps 754 mmHg 79%
    04:00 +12°C° 0 mm 4 mps 753 mmHg 78%
    05:00 +12°C° 0 mm 4 mps 753 mmHg 77%
    06:00 +13°C° 0 mm 4 mps 752 mmHg 76%
    07:00 +14°C° 0 mm 5 mps 751 mmHg 73%
    08:00 +15°C° 0 mm 6 mps 751 mmHg 70%
    09:00 +16°C° 0 mm 6 mps 750 mmHg 66%
    10:00 +16°C° 0.2 mm 6 mps 750 mmHg 71%
    11:00 +16°C° 0.2 mm 5 mps 749 mmHg 76%
    12:00 +15°C° 0.2 mm 5 mps 748 mmHg 81%
    13:00 +16°C° 0.4 mm 5 mps 748 mmHg 80%
    14:00 +17°C° 0.4 mm 6 mps 747 mmHg 79%
    15:00 +17°C° 0.4 mm 6 mps 747 mmHg 77%
    16:00 +17°C° 0.5 mm 5 mps 746 mmHg 80%
    17:00 +17°C° 0.5 mm 4 mps 746 mmHg 82%
    18:00 +17°C° 0.5 mm 3 mps 745 mmHg 85%
    19:00 +15°C° 0.5 mm 4 mps 745 mmHg 86%
    20:00 +14°C° 0.5 mm 4 mps 745 mmHg 88%
    21:00 +13°C° 0.5 mm 4 mps 745 mmHg 90%
    22:00 +12°C° 0.1 mm 4 mps 745 mmHg 90%
    23:00 +12°C° 0.1 mm 5 mps 744 mmHg 90%

    28 August, Wednesday

    Time Temperature Precipitation Wind Pressure Humidity
    00:00 +12°C° 0.1 mm 5 mps 744 mmHg 91%
    01:00 +10°C° 0.2 mm 5 mps 744 mmHg 91%
    02:00 +10°C° 0.2 mm 6 mps 744 mmHg 91%
    03:00 +9°C° 0.2 mm 6 mps 744 mmHg 91%
    04:00 +9°C° 0.3 mm 7 mps 744 mmHg 90%
    05:00 +9°C° 0.3 mm 7 mps 744 mmHg 89%
    06:00 +7°C° 0.3 mm 8 mps 744 mmHg 88%
    07:00 +7°C° 0.1 mm 8 mps 745 mmHg 87%
    08:00 +7°C° 0.1 mm 8 mps 745 mmHg 85%
    09:00 +7°C° 0.1 mm 8 mps 745 mmHg 84%
    10:00 +7°C° 0 mm 8 mps 746 mmHg 81%
    11:00 +9°C° 0 mm 8 mps 746 mmHg 79%
    12:00 +10°C° 0 mm 8 mps 746 mmHg 77%
    13:00 +10°C° 0.1 mm 8 mps 746 mmHg 78%
    14:00 +10°C° 0.1 mm 8 mps 746 mmHg 80%
    15:00 +10°C° 0.1 mm 8 mps 747 mmHg 82%
    16:00 +10°C° 0.1 mm 8 mps 747 mmHg 82%
    17:00 +10°C° 0.1 mm 8 mps 747 mmHg 81%
    18:00 +8°C° 0.1 mm 9 mps 747 mmHg 81%
    19:00 +8°C° 0.2 mm 9 mps 747 mmHg 83%
    20:00 +8°C° 0.2 mm 9 mps 747 mmHg 86%
    21:00 +8°C° 0.2 mm 9 mps 748 mmHg 88%
    22:00 +7°C° 0.1 mm 9 mps 748 mmHg 88%
    23:00 +7°C° 0.1 mm 9 mps 748 mmHg 89%

    29 August, Thursday

    Time Temperature Precipitation Wind Pressure Humidity
    00:00 +7°C° 0.1 mm 9 mps 748 mmHg 90%
    01:00 +7°C° 0.1 mm 9 mps 748 mmHg 89%
    02:00 +7°C° 0.1 mm 8 mps 749 mmHg 89%
    03:00 +7°C° 0.1 mm 8 mps 749 mmHg 89%
    04:00 +7°C° 0 mm 8 mps 749 mmHg 88%
    05:00 +7°C° 0 mm 8 mps 749 mmHg 87%
    06:00 +7°C° 0 mm 8 mps 750 mmHg 86%
    07:00 +7°C° 0 mm 9 mps 750 mmHg 85%
    08:00 +6°C° 0 mm 9 mps 750 mmHg 83%
    09:00 +6°C° 0 mm 9 mps 751 mmHg 82%
    10:00 +7°C° 0 mm 9 mps 751 mmHg 79%
    11:00 +9°C° 0 mm 8 mps 751 mmHg 75%
    12:00 +9°C° 0 mm 8 mps 751 mmHg 71%
    13:00 +9°C° 0 mm 8 mps 751 mmHg 70%
    14:00 +10°C° 0 mm 8 mps 752 mmHg 68%
    15:00 +10°C° 0 mm 8 mps 752 mmHg 67%
    16:00 +10°C° 0 mm 8 mps 752 mmHg 68%
    17:00 +9°C° 0 mm 7 mps 752 mmHg 68%
    18:00 +9°C° 0 mm 7 mps 753 mmHg 69%
    19:00 +9°C° 0 mm 7 mps 753 mmHg 70%
    20:00 +9°C° 0 mm 6 mps 753 mmHg 70%
    21:00 +8°C° 0 mm 6 mps 753 mmHg 71%
    22:00 +8°C° 0 mm 6 mps 753 mmHg 73%
    23:00 +7°C° 0 mm 6 mps 753 mmHg 75%

    30 August, Friday

    Time Temperature Precipitation Wind Pressure Humidity
    00:00 +7°C° 0 mm 6 mps 753 mmHg 77%
    01:00 +7°C° 0 mm 6 mps 753 mmHg 79%
    02:00 +7°C° 0 mm 6 mps 753 mmHg 80%
    03:00 +7°C° 0 mm 6 mps 753 mmHg 81%
    04:00 +7°C° 0 mm 6 mps 753 mmHg 83%
    05:00 +7°C° 0 mm 6 mps 753 mmHg 84%
    06:00 +7°C° 0 mm 6 mps 753 mmHg 86%
    07:00 +7°C° 0.1 mm 6 mps 753 mmHg 86%
    08:00 +8°C° 0.1 mm 6 mps 753 mmHg 86%
    09:00 +8°C° 0.1 mm 6 mps 754 mmHg 86%
    10:00 +8°C° 0.4 mm 5 mps 754 mmHg 88%
    11:00 +8°C° 0.4 mm 5 mps 754 mmHg 89%
    12:00 +8°C° 0.4 mm 5 mps 755 mmHg 91%
    13:00 +8°C° 0.2 mm 5 mps 755 mmHg 89%
    14:00 +8°C° 0.2 mm 5 mps 755 mmHg 87%
    15:00 +9°C° 0.2 mm 5 mps 755 mmHg 85%
    16:00 +9°C° 0 mm 5 mps 755 mmHg 83%
    17:00 +10°C° 0 mm 4 mps 755 mmHg 82%
    18:00 +11°C° 0 mm 4 mps 755 mmHg 81%
    19:00 +10°C° 0 mm 4 mps 755 mmHg 82%
    20:00 +10°C° 0 mm 4 mps 756 mmHg 82%
    21:00 +9°C° 0 mm 3 mps 756 mmHg 83%
    22:00 +9°C° 0 mm 3 mps 756 mmHg 83%
    23:00 +8°C° 0 mm 4 mps 756 mmHg 84%
    Show more